Date String (YYYY-MM-DD hh:mm:ss) UTC,Instrument flags,Ambient pressure (hPa),Sample flow (lpm),Bypass flow (lpm),Sample temperature (°C),Ambient temperature (°C),ASC tube jacket temperature (°C),LED temperature (°C),Box temperature (°C),Sample RH (%),Span deviation,Mass concentration (μg/m³),Mass concentration (μg/m³),Mass concentration (μg/m³)
DateTimeUTC,F1_M11,P_M11,Q1_M11,Q2_M11,T1_M11,T2_M11,T3_M11,T4_M11,T5_M11,U1_M11,ZSPAN_M11,X0_M11,X2_M11,X1_M11
2022-01-29 19:00:00,,0829.0,4.99,0.00,27.2,26.5,00.0,35.9,29.1,06.2,0000.0,0003.94,0001.56,0001.35
2022-01-29 19:01:00,,0828.6,5.01,0.00,27.2,26.5,00.0,35.9,29.1,05.9,0000.0,0004.19,0001.68,0001.44
2022-01-29 19:02:00,,0828.5,4.99,0.00,27.2,26.5,00.0,35.9,29.1,06.2,0000.0,0004.48,0001.79,0001.55
2022-01-29 19:03:00,,0828.5,5.00,0.00,27.3,26.5,00.0,36.0,29.1,06.2,0000.0,0005.63,0001.91,0001.63
2022-01-29 19:04:00,,0828.5,5.01,0.00,27.3,26.5,00.0,36.0,29.2,06.2,0000.0,0006.65,0002.05,0001.73
2022-01-29 19:05:00,,0828.4,4.99,0.00,27.3,26.5,00.0,36.0,29.2,06.4,0000.0,0007.24,0002.24,0001.85
2022-01-29 19:06:00,,0828.4,4.99,0.00,27.3,26.5,00.0,36.0,29.2,06.3,0000.0,0008.61,0002.46,0001.99
2022-01-29 19:07:00,,0828.5,5.01,0.00,27.3,26.5,00.0,36.1,29.2,06.3,0000.0,0009.27,0002.68,0002.14
2022-01-29 19:08:00,,0828.4,4.99,0.00,27.3,26.5,00.0,36.1,29.2,06.3,0000.0,0009.61,0002.88,0002.29
2022-01-29 19:09:00,,0828.4,5.03,0.00,27.3,26.5,00.0,36.1,29.2,06.2,0000.0,0009.96,0003.06,0002.44
2022-01-29 19:10:00,,0828.4,4.99,0.00,27.3,26.5,00.0,36.1,29.2,06.1,0000.0,0009.93,0003.15,0002.54
2022-01-29 19:11:00,,0828.3,5.00,0.00,27.3,26.5,00.0,36.1,29.2,06.2,0000.0,0009.92,0003.18,0002.58
2022-01-29 19:12:00,,0828.3,5.00,0.00,27.3,26.6,00.0,36.1,29.2,06.4,0000.0,0009.92,0003.21,0002.63
2022-01-29 19:13:00,,0828.3,5.00,0.00,27.3,26.5,00.0,36.2,29.2,06.0,0000.0,0010.23,0003.27,0002.65
2022-01-29 19:14:00,,0828.2,4.98,0.00,27.4,26.5,00.0,36.2,29.2,05.9,0000.0,0010.29,0003.32,0002.71
2022-01-29 19:15:00,,0828.2,5.01,0.00,27.4,26.5,00.0,36.2,29.2,05.7,0000.0,0009.75,0003.34,0002.77
2022-01-29 19:16:00,,0828.2,5.00,0.00,27.4,26.5,00.0,36.2,29.2,05.7,0000.0,0009.44,0003.32,0002.80
2022-01-29 19:17:00,,0828.3,5.01,0.00,27.4,26.5,00.0,36.2,29.2,05.7,0000.0,0008.50,0003.30,0002.81
2022-01-29 19:18:00,,0828.2,4.99,0.00,27.4,26.6,00.0,36.2,29.2,05.7,0000.0,0008.02,0003.29,0002.81
2022-01-29 19:19:00,,0828.5,5.00,0.00,27.4,26.6,00.0,36.2,29.2,05.3,0000.0,0007.87,0003.28,0002.81
2022-01-29 19:20:00,,0828.2,4.99,0.00,27.4,26.6,00.0,36.2,29.2,05.6,0000.0,0007.90,0003.30,0002.80
2022-01-29 19:21:00,,0828.2,5.00,0.00,27.4,26.6,00.0,36.3,29.3,05.4,0000.0,0008.42,0003.32,0002.83
2022-01-29 19:22:00,,0828.1,5.01,0.00,27.4,26.6,00.0,36.3,29.3,05.2,0000.0,0008.40,0003.32,0002.83
2022-01-29 19:23:00,,0828.1,5.01,0.00,27.4,26.6,00.0,36.3,29.3,05.3,0000.0,0008.88,0003.32,0002.82
2022-01-29 19:24:00,,0828.2,4.99,0.00,27.4,26.7,00.0,36.3,29.3,05.1,0000.0,0008.78,0003.27,0002.80
2022-01-29 19:25:00,,0828.1,5.01,0.00,27.5,26.7,00.0,36.3,29.3,05.5,0000.0,0008.32,0003.25,0002.79
2022-01-29 19:26:00,,0828.2,4.99,0.00,27.5,26.7,00.0,36.3,29.3,05.5,0000.0,0008.51,0003.22,0002.77
2022-01-29 19:27:00,,0828.2,5.00,0.00,27.5,26.7,00.0,36.3,29.3,05.2,0000.0,0008.69,0003.21,0002.74
2022-01-29 19:28:00,,0828.1,5.00,0.00,27.5,26.7,00.0,36.4,29.4,05.1,0000.0,0008.15,0003.20,0002.71
2022-01-29 19:29:00,,0828.1,5.00,0.00,27.5,26.7,00.0,36.4,29.4,05.1,0000.0,0008.06,0003.15,0002.68
2022-01-29 19:30:00,,0828.1,5.00,0.00,27.5,26.7,00.0,36.4,29.4,05.3,0000.0,0007.99,0003.12,0002.66
2022-01-29 19:31:00,,0828.1,4.99,0.00,27.6,26.7,00.0,36.4,29.4,05.2,0000.0,0008.09,0003.10,0002.64
2022-01-29 19:32:00,,0828.1,5.00,0.00,27.6,26.8,00.0,36.4,29.4,05.4,0000.0,0007.90,0003.06,0002.62
2022-01-29 19:33:00,,0828.0,5.01,0.00,27.6,26.8,00.0,36.4,29.4,05.3,0000.0,0007.97,0003.07,0002.60
2022-01-29 19:34:00,,0828.1,4.99,0.00,27.6,26.8,00.0,36.4,29.4,04.8,0000.0,0007.60,0003.07,0002.61
2022-01-29 19:35:00,,0828.0,5.00,0.00,27.6,26.8,00.0,36.4,29.4,05.1,0000.0,0007.37,0003.07,0002.61
2022-01-29 19:36:00,,0828.0,4.99,0.00,27.6,26.8,00.0,36.5,29.5,04.7,0000.0,0006.91,0003.00,0002.57
2022-01-29 19:37:00,,0827.9,5.00,0.00,27.7,26.8,00.0,36.5,29.5,05.1,0000.0,0006.53,0002.96,0002.54
2022-01-29 19:38:00,,0827.9,5.00,0.00,27.7,26.9,00.0,36.5,29.5,05.5,0000.0,0005.72,0002.94,0002.53
2022-01-29 19:39:00,,0827.9,5.00,0.00,27.7,26.9,00.0,36.5,29.5,05.6,0000.0,0005.60,0002.94,0002.53
2022-01-29 19:40:00,,0827.9,5.00,0.00,27.7,26.9,00.0,36.5,29.5,05.6,0000.0,0005.57,0002.94,0002.53
2022-01-29 19:41:00,,0827.8,5.00,0.00,27.7,26.9,00.0,36.5,29.5,05.4,0000.0,0005.57,0002.94,0002.54
2022-01-29 19:42:00,,0827.8,5.00,0.00,27.7,26.9,00.0,36.6,29.6,05.1,0000.0,0005.24,0002.91,0002.53
2022-01-29 19:43:00,,0827.9,4.99,0.00,27.7,27.0,00.0,36.6,29.6,05.2,0000.0,0004.18,0002.88,0002.52
2022-01-29 19:44:00,,0827.9,5.01,0.00,27.8,27.0,00.0,36.6,29.6,05.3,0000.0,0004.10,0002.86,0002.53
2022-01-29 19:45:00,,0827.9,5.00,0.00,27.8,27.0,00.0,36.6,29.6,05.4,0000.0,0004.03,0002.86,0002.54
2022-01-29 19:46:00,,0827.8,5.00,0.00,27.8,27.0,00.0,36.6,29.7,05.4,0000.0,0004.09,0002.88,0002.55
2022-01-29 19:47:00,,0827.9,5.01,0.00,27.8,27.1,00.0,36.6,29.7,05.3,0000.0,0004.54,0002.99,0002.60
2022-01-29 19:48:00,,0827.8,4.99,0.00,27.8,27.1,00.0,36.7,29.7,05.4,0000.0,0005.25,0003.03,0002.65
2022-01-29 19:49:00,,0827.8,5.01,0.00,27.9,27.1,00.0,36.7,29.7,05.3,0000.0,0005.54,0003.13,0002.69
2022-01-29 19:50:00,,0827.8,4.99,0.00,27.9,27.2,00.0,36.7,29.7,05.3,0000.0,0005.57,0003.16,0002.72
2022-01-29 19:51:00,,0827.8,5.00,0.00,27.9,27.2,00.0,36.7,29.8,05.4,0000.0,0005.74,0003.18,0002.72
2022-01-29 19:52:00,,0827.8,5.02,0.00,27.9,27.2,00.0,36.7,29.8,05.6,0000.0,0005.81,0003.20,0002.75
2022-01-29 19:53:00,,0827.7,4.99,0.00,28.0,27.2,00.0,36.7,29.8,05.5,0000.0,0005.87,0003.22,0002.77
2022-01-29 19:54:00,,0827.7,4.99,0.00,28.0,27.3,00.0,36.8,29.8,05.4,0000.0,0006.09,0003.27,0002.81
2022-01-29 19:55:00,,0827.7,5.01,0.00,28.0,27.3,00.0,36.8,29.9,05.3,0000.0,0006.63,0003.30,0002.84
2022-01-29 19:56:00,,0827.7,4.98,0.00,28.0,27.3,00.0,36.8,29.9,05.4,0000.0,0006.64,0003.29,0002.85
2022-01-29 19:57:00,,0827.7,5.01,0.00,28.0,27.3,00.0,36.8,29.9,05.1,0000.0,0006.57,0003.28,0002.86
2022-01-29 19:58:00,,0827.7,4.98,0.00,28.1,27.3,00.0,36.8,29.9,04.9,0000.0,0006.77,0003.28,0002.87
2022-01-29 19:59:00,,0827.7,5.02,0.00,28.1,27.3,00.0,36.9,29.9,05.1,0000.0,0007.49,0003.28,0002.87
